Regional Weather Roundup
Issued by NWS

Home | Current Version | Previous Version | Text Only | Print | Product List | Glossary On
Versions: 1 2 3 4 5 6 7 8 9 10 11 12 13 14 15 16 17 18 19 20 21 22 23 24 25 26 27 28 29 30 31 32 33 34 35 36 37 38 39 40 41 42 43 44 45 46 47 48 49 50
000
ASCA44 KEWX 082320
RWRMX

LATIN AMERICA AND CARIBBEAN REGIONAL WEATHER ROUNDUP
NATIONAL WEATHER SERVICE AUSTIN/SAN ANTONIO TX
500 PM CST MON FEB 08 2016

NOTE: "FAIR" INDICATED FEW OR NO CLOUDS BELOW 12,000 FEET WITH NO
SIGNIFICANT WEATHER AND/OR OBSTRUCTIONS TO VISIBILITY.

BAJA CALIFORNIA

CITY           SKY/WX    TMP DP  RH WIND       PRES   REMARKS
LORETO         PTSUNNY   77  61  57 N14       29.92R
LA PAZ         PTSUNNY   77  36  22 NE9       29.97R
MEXICALI       SUNNY     81  18   9 NW13      30.13F
S.J. DEL CABO  CLOUDY    73  46  38 NW14      29.96R
TIJUANA        SUNNY     84  18   8 E18       30.09F

NORTHWESTERN MEXICO

CITY           SKY/WX    TMP DP  RH WIND       PRES   REMARKS
CULIACAN       CLOUDY    73  63  68 SW6       29.92S
DURANGO        CLOUDY    66  10  11 N2        30.26S
GUAYMAS        CLOUDY    84  36  17 NE7       29.88F
HERMOSILLO     PTSUNNY   91  25   9 SW9       29.98S
CD. JUAREZ     PTSUNNY   61  27  27 SE8       30.31F
LOS MOCHIS     CLOUDY    70  55  60 NW12      29.93R
OBREGON        CLOUDY    72  54  53 W6        29.90F

NORTHEASTERN MEXICO

CITY           SKY/WX    TMP DP  RH WIND       PRES   REMARKS
CHIHUAHUA      PTSUNNY   61  14  16 NE9       30.30F
MATAMOROS      CLOUDY    63  46  55 N9        30.33S
MONCLOVA         N/A    N/A N/A N/A MISG        N/A
MONTERREY      CLOUDY    64  21  19 NW7       30.32S
NUEVO LAREDO   CLOUDY    68  30  24 CALM      30.33F
PIEDRAS NEGRAS   N/A    N/A N/A N/A MISG        N/A
REYNOSA        CLOUDY    63  25  23 NE12      30.32S
SALTILLO       CLOUDY    52  32  46 N17       30.38S
TORREON        CLOUDY    72  19  14 E7        30.24S
CD. VICTORIA   CLOUDY    70  28  21 N18       30.29R

WESTERN MEXICO

CITY           SKY/WX    TMP DP  RH WIND       PRES   REMARKS
AGUASCALIENTES CLOUDY    68  16  13 E15       30.24F
COLIMA         PTSUNNY   79  66  65 SW12      29.91R
DEL BAJIO      PTSUNNY   70   7   8 NE15      30.28R
GUADALAJARA    CLOUDY    77  14   9 CALM      30.12S
MANZANILLO     PTSUNNY   82  75  78 SW6       29.80R
MAZATLAN       CLOUDY    75  64  69 NW13      29.87F
P. VALLARTA    CLOUDY    77  66  69 S7        29.84F
URUAPAN        PTSUNNY   77  52  41 S9        30.08S
ZACATECAS      CLOUDY    66  27  22 NE12      30.28F

CENTRAL MEXICO

CITY           SKY/WX    TMP DP  RH WIND       PRES   REMARKS
CUERNAVACA     MOSUNNY   82  21  10 CALM      30.02F
MEXICO CITY    MOSUNNY   70  -8   4 N17       30.26S
MORELIA        PTSUNNY   77   5   6 NE5       30.14F
POZA RICA      MOSUNNY   75  59  57 E12       30.25R
PUEBLA         PTSUNNY   72   7   8 NE16      30.24R
QUERETARO      PTSUNNY   66   7   9 NE17      30.30R
S. LUIS POTOSI CLOUDY    57  21  24 E18       30.30R
TAMPICO        PTSUNNY   70  54  56 N14       30.27R
TOLUCA         PTSUNNY   68  27  21 NE16      30.29S

SOUTHERN MEXICO

CITY           SKY/WX    TMP DP  RH WIND       PRES   REMARKS
ACAPULCO       SUNNY     84  75  74 SW8       29.81S HX  92
B. DE HUATULCO SUNNY     88  72  58 CALM      29.89F HX  94
OAXACA         SUNNY     77  16  10 W5        30.16R
P. ESCONDIDO   SUNNY     82  72  69 SE9       29.96S
VERACRUZ       PTSUNNY   72  57  60 NE14      30.20R
ZIHUATANEJO    MOSUNNY   84  73  70 SW9       29.83R HX  91

YUCATAN PENINSULA

CITY           SKY/WX    TMP DP  RH WIND       PRES   REMARKS
CAMPECHE       MOSUNNY   70  55  60 N12G25    30.13R
CANCUN         MOCLDY    72  57  60 NW12      30.11R
CHETUMAL       MOSUNNY   79  59  50 CALM      30.10R
CD. DEL CARMEN MOSUNNY   70  57  64 NE7       30.17R
COZUMEL        MOCLDY    72  59  64 N12       30.10R
MERIDA         PTSUNNY   72  52  49 N12       30.15R
MINATITLAN     MOSUNNY   72  64  78 N12G23    30.13R
TAPACHULA      SUNNY     86  73  66 W8        29.86F HX  93
TUX. GUTIERREZ SUNNY     68  50  52 NW23G35   30.05R
VILLAHERMOSA   CLOUDY    72  59  64 N5        30.18R

CENTRAL AMERICA

CITY           SKY/WX    TMP DP  RH WIND       PRES   REMARKS
BELIZE CITY    MOSUNNY   77  61  57 NW6       30.09R
MANAGUA        PTCLDY    84  66  54 NE18      29.83S

CARIBBEAN

CITY           SKY/WX    TMP DP  RH WIND       PRES   REMARKS
ARUBA          PTCLDY    81  72  74 E23       29.83S HAZE
CURACAO        PTCLDY    79  73  83 E18       29.86S
KINGSTON       PTCLDY    82  73  74 SE12      29.92S
SAN JUAN       PTCLDY    81  68  65 S7        29.99R
SANTO DOMINGO  PTCLDY    79  73  83 SE6       29.94S
ST. CROIX      PTCLDY    81  72  74 E9        30.01
ST. KITTS      MOCLDY    79  75  89 E12       30.00R
ST. THOMAS     CLEAR     79  72  78 SE9       30.00

$$




USA.gov is the U.S. government's official web portal to all federal, state and local government web resources and services.